Regional Weather Roundup
Issued by NWS State College, PA

Home | Current Version | Previous Version | Text Only | Print | Product List | Glossary Off
Versions: 1 2 3 4 5 6 7 8 9 10 11 12 13 14 15 16 17 18 19 20 21 22 23 24 25 26 27 28 29 30 31 32 33 34 35 36 37 38 39 40 41 42 43 44 45 46 47 48 49 50

948
ASUS41 KCTP 100203
RWRCTP

REGIONAL WEATHER ROUNDUP
NATIONAL WEATHER SERVICE STATE COLLEGE PA
900 PM EST TUE FEB 09 2016

Note: "fair" indicates few or no clouds below 12,000 feet with no
significant weather and/or obstructions to visibility.

* = STATION THAT DOES NOT REPORT PRECIPITATION /E.G. RAIN...SNOW...ETC/
    THUNDER OR FOG.

PAZ002>004-007>009-013>016-020>023-029>032-100300-
WESTERN PENNSYLVANIA

CITY           SKY/WX    TMP DP  RH WIND       PRES   REMARKS
ERIE           LGT SNOW  29  25  85 W13G22    29.62R FOG
MEADVILLE      LGT SNOW  28  22  78 W18G25    29.60S
FRANKLIN*      CLOUDY    27  21  80 SW12G20   29.63S
NEW CASTLE     LGT SNOW  27  24  89 SW8       29.67R FOG
BEAVER COUNTY  CLOUDY    27  23  86 W12       29.67R
BUTLER*        CLOUDY    27  21  80 SW12      29.70R
PITTSBURGH INT FLURRIES  25  20  81 SW10      29.68R WCI  15
PITTSBURGH     FLURRIES  27  21  78 W15       29.68R
INDIANA*       CLOUDY    25  23  93 W16       29.67S WCI  12
LATROBE        LGT SNOW  25  23  93 W14       29.70R WCI  13
WASHINGTON CO* CLOUDY    25  18  74 SW10      29.71R WCI  15
$$

PAZ004>006-010>012-017>019-024>028-033>037-041-042-045-046-049>053-100300-
CENTRAL PENNSYLVANIA

CITY           SKY/WX    TMP DP  RH WIND       PRES   REMARKS
BRADFORD       FLURRIES  27  21  78 W14       29.53R
DUBOIS         LGT SNOW  27  23  85 W16G22    29.57S FOG     WCI  15
CLEARFIELD     CLOUDY    28  24  85 SW9       29.59R
JOHNSTOWN      LGT SNOW  21  15  78 W13       29.58S WCI   9
ALTOONA        CLOUDY    26  18  71 W10       29.62R
STATE COLLEGE  CLOUDY    30  25  80 SW12      29.59R
WILLIAMSPORT   LGT SNOW  32  30  92 CALM      29.58R FOG
SELINSGROVE    LGT SNOW  32  30  92 VRB3      29.60S FOG
FT INDIANTOWN  LGT SNOW  29  29 100 CALM      29.60S VSB 1
CAPITAL CITY   LGT SNOW  32  28  85 W8        29.62S FOG
HARRISBURG     LGT SNOW  32  29  88 W9        29.62S FOG
YORK           LGT SNOW  30  28  92 W6        29.63R FOG
$$

PAZ038>040-043-044-047-048-054-055-060>062-067>071-100300-
EASTERN PENNSYLVANIA

CITY           SKY/WX    TMP DP  RH WIND       PRES   REMARKS
SCRANTON       LGT SNOW  31  30  96 SW5       29.55S FOG
MOUNT POCONO   LGT SNOW  27  25  92 SW5       29.51S FOG
ALLENTOWN      LGT SNOW  32  29  88 CALM      29.60F VSB 3/4
QUAKERTOWN*    CLOUDY    30  30 100 CALM      29.60F
READING        LGT SNOW  31  29  92 CALM      29.60S FOG
LANCASTER      LGT SNOW  30  30 100 W3        29.61S VSB 1
COATESVILLE    CLOUDY    30  30 100 CALM      29.61S FOG
POTTSTOWN      CLOUDY    30  30 100 CALM      29.62S FOG
BLUE BELL        N/A     32  32 100 CALM      29.60F
DOYLESTOWN     LGT SNOW  30  29  96 CALM      29.60S FOG
WILLOW GROVE   NOT AVBL
NORTH PHILA    LGT SNOW  33  30  88 CALM      29.63S FOG
PHILADELPHIA   LGT SNOW  34  31  88 E3        29.62F FOG
$$




USA.gov is the U.S. government's official web portal to all federal, state and local government web resources and services.